Regional Weather Roundup
Issued by NWS Charleston, SC

Current Version | Previous Version | Graphics & Text | Print | Product List | Glossary Off
Versions: 1 2 3 4 5 6 7 8 9 10 11 12 13 14 15 16 17 18 19 20 21 22 23 24 25 26 27 28 29 30 31 32 33 34 35 36 37 38 39 40 41 42 43 44 45 46 47 48 49 50

000
ASUS42 KCHS 220425
RWRCHS

REGIONAL WEATHER ROUNDUP
NATIONAL WEATHER SERVICE CHARLESTON SC
1200 AM EDT FRI AUG 22 2014

NOTE: "FAIR" INDICATES FEW OR NO CLOUDS BELOW 12,000 FEET WITH NO
SIGNIFICANT WEATHER AND/OR OBSTRUCTIONS TO VISIBILITY.

NOT ALL STATIONS ARE QUALITY CONTROLLED BY THE NATIONAL
WEATHER SERVICE. USE DATA WITH CAUTION...ESPECIALLY
DEWPOINT OBSERVATIONS.

SCZ027-030-031-034>040-042>050-220500-
...SOUTH CAROLINA...

CITY           SKY/WX    TMP DP  RH WIND       PRES   REMARKS
N CHARLESTON   PTCLDY    82  74  76 CALM      30.06S
WATERFRONT PRK NOT AVBL
FORT JOHNSON   NOT AVBL
MOUNT PLEASANT FAIR      81  79  94 CALM      30.06S FOG
JOHNS ISLAND   CLEAR     82  82 100 CALM      30.06S HX  97
PINOPOLIS        N/A     86  79  79 SW3       29.99R HX  99
MONCKS CORNER    N/A     77  77 100 CALM      30.05F
SUMMERVILLE    NOT AVBL
BEAUFORT MCAS  CLEAR     82  78  88 CALM      30.06F HX  91
BEAUFORT ARPT  FAIR      81  81 100 S3        30.06S HX  91
HILTON HEAD IS CLEAR     82  81  94 CALM      30.07F HX  95
GEORGETOWN     NOT AVBL
WALTERBORO     PTCLDY    77 N/A N/A CALM      30.07F
ORANGEBURG     PTCLDY    76  73  91 SW3       30.07S
BARNWELL       FAIR      77  70  78 CALM      30.08S
AIKEN          FAIR      79  70  73 CALM      30.12S
MANNING        FAIR      77 N/A N/A CALM      30.06S
KINGSTREE      NOT AVBL
COLUMBIA       PTCLDY    79  72  79 W3        30.05F
SUMTER         CLEAR     80  71  74 CALM      30.05S
FLORENCE       PTCLDY    76  72  87 S3        30.05F
MYRTLE BEACH   PTCLDY    81  73  78 SW6       30.05F
N MYRTLE BEACH PTCLDY    77  74  90 W3        30.04F

$$

GAZ063-065-086>088-099>101-113>116-118-119-134-136>141-150-220500-
...GEORGIA...

CITY           SKY/WX    TMP DP  RH WIND       PRES   REMARKS
SAVANNAH ARPT  CLEAR     81  75  82 S5        30.07F
HUNTER AAF     CLEAR     83  80  91 S5        30.05F HX  95
FORT STEWART   CLEAR     76  71  85 E5        30.06S
STATESBORO     NOT AVBL
SYLVANIA       CLEAR     76  74  92 CALM      30.08S
CLAXTON        FAIR      77  77 100 CALM      30.07S
THOMSON        CLEAR     76  74  93 CALM      30.12F
AUGUSTA-BUSH   CLEAR     77  72  84 CALM      30.06F
AUGUSTA-DANIEL CLEAR     84  69  60 CALM      30.08F
SWAINSBORO     FAIR      79  73  83 CALM      30.08F
VIDALIA          N/A     79  73  83 CALM      30.09S
ALMA           PTCLDY    78  73  84 CALM      30.09S
WAYCROSS       PTCLDY    83  75  77 CALM      30.09S
JESUP            N/A     79  73  83 SW3       30.08S
BRUNSWICK      CLEAR     79  73  83 CALM      30.08S
SAINT SIMONS   CLEAR     83  74  74 S6        30.08R

$$

SCZ027-028-034-036>038-045-046-048>050-GAZ119-141-220500-
...LAKE AND SUPPLEMENTAL COASTAL OBSERVATIONS...

STATION/POSITION TIME  TEMP    WIND        PRES    WAVE   SWELL
                       AIR SEA DIR/SP/G            HT/PER HT/PER/DIR
                 (UTC) (F)     (DEG/KT/KT) (MB)    (FT/S) (FT/S/D)
UPR LAKE MARION  NOT AVBL
WINYAH BAY       0400   81        CALM     1017.0S
LAKE MURRAY      0300   83        CALM     1017.6R
ACE BASIN NERRS  0400   80        CALM     1018.0S
FORT PULASKI     0400   84     190/  3/  4 1018.4F
SAPELO ISLAND    0400   83     180/  4     1019.0S

$$

ANZ835-935-AMZ111-154-330-350-352-354-374-450-454-472-220500-
...C-MAN AND BUOY OBSERVATIONS...

STATION/POSITION TIME  TEMP    WIND        PRES    WAVE   SWELL
                       AIR SEA DIR/SP/G            HT/PER HT/PER/DIR
                 (UTC) (F)     (DEG/KT/KT) (MB)    (FT/S) (FT/S/D)
FOLLY BEACH CMAN 0400   84     230/  5/  7 1018.3S
BUOY 41004       0400   84 85  200/  8/ 10 1017.7F   2/ 8   2/ 8
BUOY 41008       0400   85 85  200/ 12/ 14 1018.4S   2/ 3
5E ST. MARYS GA  0400      83                N/A     2/ 9
FRYING PAN BUOY  NOT AVBL
BUOY 41025       0400   81     220/  8/ 10 1016.3F   2/ 9   2/ 40/ 9
CAPE LOOKOUT NC  0400   82     230/  7/ 10 1016.4F
BUOY 41002       0328   82 82  250/  8/ 10 1019.5R   2/ 8   2/120/ 8
BUOY 41010       0400   85 86  180/  6/  8 1019.8F   1/ 9   2/140/ 9
BUOY 41012       NOT AVBL
ST AUGUSTINE FL  0400   78     260/  6/  8 1019.8F
CAPERS NEARSHORE NOT AVBL
FRIPP NEARSHORE  NOT AVBL


$$


USA.gov is the U.S. government's official web portal to all federal, state and local government web resources and services.